User: anonymous   Login
Location: Gu�tanj
(46.5431°N, 14.9692°E)
Time: 19:11:56
(UTC+00:00)
Language:

X-37B - Orbit

View from above orbital plane
View from above orbital plane
View from above satellite
View from above satellite

Ground track
Ground track

The orbit data is extracted from the following two-line orbital elements,

1 45606U 20029A   21297.72606245 0.00000000  00000-0  00000-0 0    00
2 45606  45.0380 193.6659 0001004 159.8841 200.1155 15.40030799    05
Epoch (UTC): 24 October 2021 17:25:31
Eccentricity: 0.0001004
inclination: 45.0380°
perigee height: 445 km
apogee height: 447 km
right ascension of ascending node: 193.6659°
argument of perigee: 159.8841°
revolutions per day: 15.40030799
mean anomaly at epoch: 200.1155°
orbit number at epoch: 0

The dashed part of the orbit path shows where the satellite is in the earth's shadow,  

DLR